ATLAS 5 CENTAUR DEB, 45474

Orbit data source: Space-Track

ATLAS 5 CENTAUR DEB, 45474 is space debris in HEO originally from a launch on Wed, 17 Oct 2018 UTC launched from the Air Force Eastern Test Range (AFETR). Debris objects in space refer to the collection of defunct objects orbiting the Earth. Examples of debris include non-operational satellites, rocket bodies, and fragments generated from explosions, collisions, or faulty payload assembly.

Loading next visibility...
Identifier
45474, 2018-079BW
Orbit
HEO
Country
Flag of USUS
Related business
Flag of USUnited Launch Alliance/Lockheed Martin (US)
Manufacturer
ULA Decatur
Mission
Spacecraft
Bus & Motor
Unknown
Mass
Unknown
Launch date (UTC)
2018-10-17 (7 years ago)
Launch vehicle
Unknown
Launch site
Air Force Eastern Test Range (AFETR)
Object type
Payload
Rocket body
Debris
Shape & HBR
Unknown shape, 1.1 m
Radar Cross Section
RCS unknown

Expand to show TLE details & history
Last TLE update: 1 week ago

TLE from 1 week ago
0 ATLAS 5 CENTAUR DEB
1 45474U 18079BW  25298.64599608 -.00000054  00000-0  00000-0 0  9992
2 45474  12.6948  79.8867 4508304 219.8642  96.4272  1.74203005 38909
Epoch: 2025-10-25T15:30Z
TLE epoch observation values (Epoch: 2025-10-25T15:30:14.061Z)
Latitude
-0.00002°
Longitude
172.98421°
Altitude
29,155.634 km
Speed
2.962 km/s
True Right ascension
05h 19m 15s
True Declination
0° 00' 00"
Sunlit
Object was in daylight at epoch
Visualization orbit readout
Latitude
Unknown
Longitude
Unknown
Altitude
Unknown
Speed
Unknown
Apparent Right ascension
Unknown
Apparent Declination
Unknown
Sunlit
N/A
Visualization observer readout
Local Sidereal Time
02:18:36
Azimuth
Unknown
Elevation
Unknown
Doppler factor
Unknown
Orbital elements
Apogee altitude
35,954.725 km
Perigee altitude
9,645.735 km
Semi-major axis
29,178.367 km
Eccentricity
0.45083
Inclination
12.6948°
RAAN
79.8867°
Arg. of periapsis
219.8642°
True anomaly
140.17008°
Mean anomaly
96.4272°
Eccentric anomaly
119.01577°
Mean motion
0.43546 °/min
Orbital period
826.71 mins
BSTAR
0
Loading maneuver chart data...
Computing Atmospheric mass density...

Documentation

Showing up to 5 results
|